Terminal Aerodrome Forecast
Issued by NWS

Home | Current Version | Previous Version | Graphics & Text | Print | Product List | Glossary On
Versions: 1 2 3 4 5 6 7 8 9 10 11 12 13 14 15
000
FTUS43 KMPX 131700
TAFRNH
TAF
KRNH 131721Z 1318/1418 01015G22KT P6SM BKN015 OVC030
     FM132100 35020G28KT P6SM SCT015 BKN025
     FM140900 35018G24KT P6SM SCT050 BKN250=

USA.gov is the U.S. government's official web portal to all federal, state and local government web resources and services.